Home   Weather   Cheltenham   Past weeks

Flag for United Kingdom Past Weather in Cheltenham, England, United Kingdom — Yesterday and Last 2 Weeks

Now
61 °F

Cool.


Feels Like: 61 °F
Forecast: 49 / 60 °F
Wind: 24 mph from Southwest

Location: Little Rissington

Current Time: Sep 29, 2016 at 1:09:33 AM

Latest Report: Sep 29, 2016 at 12:00 AM


Visibility: 11 mi

Pressure: 30.06 "Hg

Humidity: 99%

Dew Point: 60 °F

Location of CheltenhamLocation

Past Weather in Cheltenham — Graph

°F

Cheltenham Temperature Yesterday

Maximum temperature yesterday: 66 °F (at 3:00 PM)
Minimum temperature yesterday: 52 °F (at 5:00 AM)
Average temperature yesterday: 59 °F

High & Low Weather Summary for the Past Weeks

 TemperatureHumidityPressure
High77 °F (Sep 14, 2:00 PM)100% (Sep 20, 9:00 AM)30.26 "Hg (Sep 20, 9:00 AM)
Low44 °F (Sep 23, 6:00 AM)53% (Sep 23, 2:00 PM)29.72 "Hg (Sep 25, 3:00 AM)
Average57 °F87%30.06 "Hg
* Reported Sep 13 11:00 PM — Sep 28 11:00 PM, Cheltenham, Weather by CustomWeather, © 2016

Note: Actual official high and low records may vary slightly from our data, if they occured in-between our weather recording intervals... More about our weather records

Advertising

Cheltenham Weather History for the Previous 24 Hours

Scroll right to see more
 ConditionsComfort  
Time TempWeatherWind HumidityBarometerVisibility
11:00 PM
Wed, Sep 28
61 °FCool.21 mph99%30.07 "Hg3 mi
10:00 PM61 °FCool.22 mph99%30.10 "Hg1 mi
9:00 PM61 °FCool.20 mph99%30.12 "Hg1 mi
8:00 PM62 °FMild.20 mph97%30.11 "Hg3 mi
7:00 PM63 °FMild.16 mph96%30.13 "Hg4 mi
6:00 PM63 °FMild.16 mph94%30.16 "Hg14 mi
5:00 PM64 °FMild.15 mph89%30.17 "Hg22 mi
4:00 PM66 °FMild.17 mph87%30.18 "Hg22 mi
3:00 PM66 °FMild.18 mph83%30.20 "Hg19 mi
2:00 PM65 °FMild.16 mph87%30.22 "Hg16 mi
1:00 PM63 °FMild.16 mph88%30.23 "Hg12 mi
12:00 PM63 °FMild.15 mph88%30.22 "Hg12 mi
11:00 AM64 °FMild.12 mph88%30.23 "Hg10 mi
10:00 AM60 °FCool.13 mph87%30.24 "Hg9 mi
9:00 AM57 °FCool.12 mph91%30.24 "Hg9 mi
8:00 AM54 °FCool.12 mph91%30.23 "Hg9 mi
7:00 AM53 °FCool.8 mph95%30.23 "Hg8 mi
6:00 AM53 °FCool.13 mph97%30.23 "Hg6 mi
5:00 AM52 °FCool.8 mph98%30.23 "Hg5 mi
4:00 AM52 °FCool.12 mph99%30.24 "Hg4 mi
3:00 AM53 °FCool.16 mph98%30.24 "Hg3 mi
2:00 AM52 °FCool.15 mph97%30.24 "Hg6 mi
1:00 AM52 °FCool.14 mph98%30.23 "Hg5 mi
Weather by CustomWeather, © 2016

See weather overviewHow to use our weather pages